STAR ONE D2

Last updated on Tue Oct 21 2025 00:02:55 GMT+0000 (Coordinated Universal Time)

1 49055U 21069A 25293.53763133 .00000000 00000+0 00000+0 0 9991 2 49055 0.0189 206.1296 0002732 352.6512 313.9160 1.00268465 15536
UTC large
Height (km)
Speed (km/s)
/
Latitude / Longitude
Inclination (degrees)
Orbital Period (minutes)
Azimuth
Elevation
Range (km)
Doppler Factor

Next 0 passes for location: London (51.5072 / 0.1276)

Sorry there are no passes over London.